Location: Lhota
(50.0887°N, 14.0116°E)
Time: 07:02:12
(UTC+00:00)

Cosmos 1975 - Pass Details

Date: 19 May 2025
Orbit: 487 x 505 km, 82.5° (Epoch: 22 June)

Event Time Altitude Azimuth Distance (km) Brightness Sun altitude
Rises 21:10:19 0° 358° (N) 2,577 7.5 -15.8°
Reaches altitude 10° 21:12:39 10° 11° (N) 1,689 6.1 -16.0°
Maximum altitude 21:15:52 28° 71° (ENE) 956 4.0 -16.2°
Enters shadow 21:17:03 23° 104° (ESE) 1,082 4.0 -16.3°
